Terminal

Terminal

Towards east Towards west


Weather at Vagar airport (metar):

EKVG 251120Z AUTO 34015KT 9999NDV BKN024/// 07/01 Q1015

METAR / TAF from DMI at Vagar                      Weather from Vagar airport

Atlantic Airways

Atlantic Airways official webpage

News

26. January 2015
Note about laser beams

Weather

Information

Webcamera

Terminalur